Вернуться в каталог

SCOUT G-1 DEB

АктивенPO
NORAD 44570·DEBRIS·🇺🇸 United States

Запущен Aug 3, 1985 с Vandenberg Space Force Base

Loading…

Ближайшие Пролёты (ближайшие 24 часа)

TLE

УстаревшееSource: Space-Track

Эпоха: Aug 31, 2026, 09:44 UTC

1 44570U 85066J   26243.40579030  .00000495  00000-0  85207-3 0  9993
2 44570  90.1570  97.4123 0161534  66.7746  51.5544 13.38022039609185

Отслеживайте SCOUT G-1 DEB в реальном времени с AllMySat

Download on the App Store